Regional Weather Roundup
Issued by NWS Sioux Falls, SD

Home | Current Version | Previous Version | Text Only | Print | Product List | Glossary Off
Versions: 1 2 3 4 5 6 7 8 9 10 11 12 13 14 15 16 17 18 19 20 21 22 23 24 25 26 27 28 29 30 31 32 33 34 35 36 37 38 39 40 41 42 43 44 45 46 47 48 49 50

000
ASUS43 KFSD 012110
RWRFSD

WEATHER ROUNDUP FOR SE SOUTH DAKOTA/SW MINNESOTA/NW IOWA
NATIONAL WEATHER SERVICE SIOUX FALLS SD
300 PM CST SUN FEB 01 2015

NOTE: "FAIR" INDICATES FEW OR NO CLOUDS BELOW 12,000 FEET WITH NO
SIGNIFICANT WEATHER AND OR OBSTRUCTIONS TO VISIBILITY.


SDZ038>040-050-052>070-012200-
SOUTHEAST SOUTH DAKOTA

CITY           SKY/WX    TMP DP  RH WIND       PRES   REMARKS
CHAMBERLAIN    SUNNY      3  -5  70 N17G25    30.38S WCI -17
HURON          SUNNY      5  -6  60 N21G28    30.39S WCI -16
MADISON        FAIR       7   5  92 N21G26    30.25S WCI -13
MITCHELL       CLOUDY     5  -2  72 N20G30    30.37S BLWGSNOWWCI -15
SIOUX FALLS    CLOUDY     8   1  73 N22       30.25R WCI -12
WINNER         FAIR       4  -4  69 NW20      30.36S WCI -17
YANKTON        PTSUNNY  N/A N/A N/A NW25      30.31R
$$

MNZ071-072-080-081-089-090-097-098-012200-
SOUTHWEST MINNESOTA

CITY           SKY/WX    TMP DP  RH WIND       PRES   REMARKS
FAIRMONT       CLOUDY    14   5  67 N21G26    30.14R WCI  -4
JACKSON        CLOUDY    14   9  79 N17G26    30.15R HAZE    WCI  -3
LUVERNE        MOSUNNY   12   5  73 N17G23    30.23R WCI  -5
MARSHALL       CLOUDY    10   0  61 N24G31    30.27S WCI -10
MONTEVIDEO     MOSUNNY   16   3  57 NE18      30.30F WCI  -1
PIPESTONE      MOSUNNY    9   1  72 N16G24    30.22R WCI  -9
REDWOOD FALLS  PTSUNNY   17   3  54 N15G26    30.25S WCI   2
TRACY          PTSUNNY   14   6  71 N21G28    30.23S WCI  -4
WINDOM         CLOUDY    12   7  79 N21G30    30.18R WCI  -6
WORTHINGTON    CLOUDY    14   3  62 N25G32    30.18R WCI  -5
$$

IAZ001>003-012>014-020>022-031-032-NEZ013-014-SDZ071-012200-
NORTHWEST IOWA

CITY           SKY/WX    TMP DP  RH WIND       PRES   REMARKS
CHEROKEE       LGT SNOW  13   9  85 N20G28    30.16R WCI  -5
DENISON        LGT SNOW  16  12  86 N18G30    30.08R VSB 1   WCI  -1
ESTHERVILLE    CLOUDY    13   7  77 N26G32    30.14  HAZE    WCI  -7
LE MARS        LGT SNOW  10   7  85 N22       30.22R WCI  -9
ORANGE CITY      N/A     12   9  85 N16G25    30.19R WCI  -4
SHELDON        SNOW      12   9  85 N26G33    30.17R VSB 1/2 WCI  -8
SIOUX CITY     LGT SNOW  12   6  77 N29G36    30.21R VSB 1   WCI  -9
SPENCER        LGT SNOW  14   7  73 N26G33    30.15R WCI  -6
STORM LAKE     SNOW      12   9  85 N29G35    30.10R VSB 1/2 WCI  -9
$$

ABBREVIATIONS USED IN REMARKS
   TC - TEMPERATURE IN CELSIUS
  WCI - WIND CHILL INDEX
   HX - HEAT INDEX
  VSB - VISIBILITY




USA.gov is the U.S. government's official web portal to all federal, state and local government web resources and services.